Dewpoint
71 69 69 64 61 58 53 46 47 48 47 50 50 54 54 57 54 55 59 61 65 67 70 72 75 74 74 74 74 74 73 73 74 74 75 74 74 74 74 73 73 74 74 75 75 74 73 73 73
64 64 61 60 57 50 53 49 48 47 48 50 54 56 56 57 60 60 61 61 64 67 69 70 75 74 74 74 74 74 74 74 74 74 73 73 73 74 74 75 74 74 74 73 73 73 74 74 74
62 62 59 61 56 52 52 48 47 47 47 49 49 57 58 59 60 61 61 64 66 66 69 72 75 74 74 73 73 73 73 74 74 74 74 75 74 74 74 75 74 74 75 74 75 74 74 73 72
62 64 62 56 54 54 52 46 49 48 48 48 53 56 59 61 60 61 62 66 66 70 71 73 74 74 74 74 73 73 73 73 70 70 74 73 73 74 74 74 74 74 74 74 74 73 73 73 72
61 61 57 55 55 56 49 49 49 46 48 48 54 57 58 61 61 62 62 66 68 70 71 72 75 74 73 73 73 72 72 71 70 71 73 73 73 73 73 73 73 72 73 74 73 73 72 72 71
58 62 56 54 54 53 52 48 46 46 47 50 53 57 59 60 61 62 64 67 69 71 68 71 73 73 73 73 73 72 71 69 68 73 71 73 73 74 73 72 72 72 73 73 73 73 72 72 71
55 56 54 54 54 56 52 49 45 46 46 47 52 57 59 60 61 62 64 66 67 68 69 72 71 72 73 72 72 73 73 73 72 71 73 73 73 73 74 73 72 72 72 73 73 73 73 72 72
53 58 55 54 54 57 58 48 47 47 46 48 51 55 59 61 62 62 63 64 67 68 68 71 71 71 71 71 71 71 71 72 72 71 73 73 73 73 73 75 74 73 72 71 72 73 74 73 73
55 58 56 55 56 59 59 50 49 48 48 51 52 56 60 61 61 61 62 64 68 70 67 66 69 69 69 70 71 73 73 72 71 73 74 75 72 72 72 74 75 74 73 73 73 73 74 74 73
57 58 55 58 60 58 59 55 47 47 48 51 53 55 59 61 61 61 61 62 66 66 67 68 71 65 67 65 71 73 72 71 71 73 74 75 74 73 71 73 75 75 75 75 75 74 74 73 76
55 56 57 59 60 61 61 55 49 49 48 50 52 53 54 59 59 60 60 62 63 67 70 71 70 68 65 68 69 72 73 71 73 74 73 72 72 71 67 70 70 74 73 71 73 74 71 73 75
55 55 57 57 61 61 60 59 47 47 48 50 52 53 52 52 58 58 59 61 64 67 69 70 70 70 68 67 68 67 72 72 71 70 73 74 72 72 71 71 71 73 67 71 69 68 71 73 72
58 55 55 57 60 59 60 59 55 46 50 52 53 52 51 51 58 59 61 63 66 67 70 69 70 71 73 72 71 71 71 71 69 70 72 73 74 74 73 76 74 73 71 73 72 72 73 71 70
56 54 54 55 57 57 57 57 58 48 50 51 52 51 51 51 54 60 62 63 66 67 69 68 69 70 71 72 75 73 73 70 68 68 73 75 75 74 74 76 74 73 71 73 76 76 75 74 71
53 52 54 54 54 53 55 52 56 57 50 50 51 51 51 52 54 61 62 64 65 66 67 68 68 66 70 72 75 72 70 68 70 71 75 75 74 76 77 76 75 74 76 76 74 76 76 73 70
51 53 51 52 53 55 52 53 56 59 57 49 49 50 51 52 53 58 61 63 64 65 67 67 64 64 69 72 75 73 71 73 71 70 72 75 76 76 77 75 75 76 76 74 73 74 72 72 70
51 51 50 50 52 52 50 52 54 58 57 53 50 50 52 52 53 56 60 62 64 65 67 66 66 64 68 73 73 72 75 74 73 71 71 75 74 75 76 73 76 76 74 74 72 72 73 72 71
46 49 49 52 51 51 50 50 53 55 55 52 52 52 54 51 52 55 58 61 61 64 66 67 65 67 71 72 74 73 73 72 71 73 72 75 75 74 74 73 75 75 73 73 76 76 74 73 71
50 48 47 52 53 52 52 52 50 57 55 54 52 54 52 53 54 53 57 61 62 63 66 66 65 70 70 69 70 70 70 71 72 72 75 75 75 73 77 73 75 75 74 73 74 75 75 73 73
40 47 41 43 48 50 52 52 53 55 55 53 53 53 55 55 55 53 55 60 58 61 65 68 69 69 70 68 70 73 71 74 71 74 74 74 75 76 75 76 75 77 74 75 76 76 72 62 70
45 41 37 35 44 47 52 49 52 54 55 54 55 54 57 57 57 52 53 55 58 61 65 67 70 71 70 72 73 74 76 74 71 71 73 73 73 74 76 76 76 76 76 69 71 75 71 64 68
27 32 24 28 35 46 47 48 51 52 52 55 54 54 55 58 57 61 53 53 55 60 64 66 70 71 71 74 74 74 73 68 72 68 75 73 74 75 74 75 76 77 77 71 72 74 75 74 70
28 29 27 30 35 45 43 42 46 52 53 53 53 55 55 52 55 59 59 56 55 58 60 65 69 72 72 73 75 73 74 74 69 76 73 77 75 76 74 75 75 75 69 67 74 75 75 75 74
28 26 26 30 28 31 38 48 42 49 55 56 52 52 54 53 54 58 62 61 56 57 58 61 68 71 72 73 74 75 75 73 73 74 72 73 74 73 77 75 77 76 70 65 73 77 77 75 76
24 22 23 28 29 28 32 34 42 44 47 52 52 51 53 54 55 57 57 60 62 59 60 62 68 70 71 72 72 73 74 76 74 73 71 73 70 71 75 76 77 77 76 74 77 77 76 76 75
23 19 20 30 31 34 41 35 40 41 40 42 43 46 50 54 57 58 57 59 62 65 68 67 69 71 71 71 72 74 75 73 72 73 73 72 72 69 73 76 76 76 75 75 77 75 75 73 75
22 22 21 21 20 17 29 34 35 38 39 41 42 46 49 50 56 56 57 58 60 64 67 66 69 71 71 71 72 74 75 75 72 74 75 70 71 72 73 72 75 76 75 74 76 75 74 76 75
18 19 20 19 20 22 24 29 34 40 39 40 43 40 49 52 53 56 58 62 61 64 63 66 70 71 71 70 72 72 74 75 75 76 74 74 72 71 69 71 75 74 75 74 77 75 75 75 75
20 18 21 19 21 20 21 32 38 39 37 42 41 42 46 46 51 53 56 63 64 65 62 66 69 71 71 71 71 73 73 73 75 74 74 75 74 73 73 74 75 74 75 76 76 76 74 73 73
25 26 22 21 27 26 28 34 36 36 34 37 41 43 43 48 51 54 55 59 62 69 66 68 69 70 71 71 72 72 73 74 74 73 73 75 74 75 74 75 74 75 75 75 76 75 72 71 72
Lifted_Index
-3 -3 -4 -4 -3 -1 -1 -2 -2 -1 -1 -1 -2 -2 -2 -3 -3 -2 -2 -2 -3 -3 -3 -4 -4 -4 -4 -4 -4 -4 -4 -4 -4 -4 -4 -4 -4 -4 -4 -4 -4 -4 -4 -4 -4 -4 -4 -4 -4
-2 -3 -3 -3 -2 -1 -1 -2 -1 -1 -1 -1 -2 -2 -3 -3 -3 -2 -2 -3 -3 -3 -3 -4 -4 -4 -4 -4 -3 -3 -4 -4 -4 -4 -4 -4 -4 -4 -4 -4 -4 -4 -4 -4 -4 -4 -4 -4 -5
-2 -2 -2 -2 -1 -0 -1 -1 -1 -0 -0 -1 -2 -2 -3 -3 -3 -3 -3 -3 -3 -3 -4 -4 -4 -4 -3 -3 -3 -3 -3 -3 -3 -3 -4 -4 -4 -4 -4 -4 -4 -4 -4 -4 -4 -4 -4 -4 -5
-2 -2 -2 -1 -1 -1 -1 -1 -1 -0 -0 -1 -2 -2 -3 -3 -2 -2 -3 -3 -3 -3 -3 -4 -4 -4 -3 -3 -3 -2 -3 -2 -2 -2 -3 -4 -4 -4 -4 -4 -4 -4 -4 -4 -4 -4 -4 -4 -4
-3 -2 -2 -1 -1 -1 -1 -1 -0 -0 -0 -1 -2 -2 -2 -2 -2 -2 -3 -3 -3 -3 -3 -3 -3 -3 -3 -3 -3 -2 -2 -1 -1 -2 -3 -3 -3 -3 -3 -3 -3 -3 -4 -4 -4 -4 -4 -4 -4
-2 -2 -2 -1 -0 -1 -1 -1 -0 0 -0 -1 -1 -2 -2 -2 -2 -2 -3 -3 -3 -3 -3 -3 -3 -3 -3 -2 -2 -2 -1 -1 -1 -2 -3 -3 -3 -3 -3 -3 -3 -3 -4 -4 -4 -4 -4 -4 -4
-2 -2 -2 -1 -0 -1 -1 -1 -0 0 -0 -0 -1 -2 -2 -2 -1 -2 -2 -3 -3 -3 -3 -2 -2 -2 -2 -2 -2 -2 -2 -2 -2 -2 -3 -3 -3 -3 -3 -3 -3 -3 -4 -4 -4 -4 -4 -4 -4
-2 -2 -2 -1 -1 -1 -1 -1 -0 0 0 0 -1 -2 -2 -2 -1 -1 -2 -2 -2 -2 -2 -2 -2 -2 -2 -2 -1 -2 -2 -2 -2 -3 -3 -3 -3 -3 -3 -3 -4 -4 -4 -4 -4 -4 -4 -4 -4
-2 -2 -2 -2 -1 -1 -1 -1 -0 0 0 -0 -1 -2 -2 -2 -1 -1 -1 -1 -2 -2 -2 -2 -1 -1 -1 -1 -1 -1 -2 -1 -2 -3 -3 -3 -3 -3 -3 -4 -4 -4 -4 -3 -3 -4 -4 -4 -4
-2 -2 -2 -2 -2 -1 -2 -1 -0 -0 -0 -0 -1 -1 -1 -1 -1 -1 -1 -1 -1 -1 -2 -2 -1 -1 -0 -0 -1 -1 -1 -1 -2 -3 -3 -3 -3 -2 -3 -3 -4 -4 -4 -4 -4 -4 -4 -4 -4
-2 -2 -2 -2 -2 -2 -2 -2 -1 -1 -0 -0 -0 -0 -0 -1 -1 -1 -1 -1 -1 -1 -1 -2 -1 -1 -0 0 0 -1 -1 -1 -2 -3 -3 -3 -3 -2 -2 -2 -3 -3 -3 -3 -3 -3 -3 -3 -4
-2 -2 -2 -1 -1 -1 -2 -2 -1 -1 -0 -0 -0 0 0 0 -1 -1 -1 -1 -1 -1 -1 -1 -1 -1 -1 -0 -0 -1 -2 -2 -2 -3 -3 -3 -3 -2 -2 -2 -3 -3 -2 -2 -3 -3 -3 -4 -4
-2 -2 -1 -1 -1 -1 -1 -2 -1 -0 -0 0 0 0 1 0 -0 -1 -1 -1 -1 -1 -2 -1 -1 -1 -1 -1 -1 -2 -2 -2 -2 -3 -3 -3 -3 -3 -3 -4 -4 -3 -2 -2 -3 -4 -4 -4 -4
-2 -2 -1 -0 -0 -1 -1 -1 -1 -0 0 0 0 0 1 1 0 -0 -1 -1 -1 -1 -2 -1 -1 -1 -1 -2 -3 -2 -2 -2 -2 -3 -4 -4 -4 -3 -4 -5 -5 -4 -3 -4 -5 -5 -5 -4 -4
-2 -2 -1 -0 -0 -0 -1 -1 -1 -0 -0 0 0 0 1 1 1 0 -0 -0 -1 -1 -1 -1 -1 -1 -1 -2 -3 -2 -2 -2 -3 -3 -4 -4 -4 -4 -4 -5 -5 -4 -4 -4 -5 -5 -5 -4 -4
-2 -2 -1 -1 -0 -0 -0 -0 -0 -1 -0 -0 0 0 1 1 1 1 0 0 -0 -0 -1 -1 -1 -1 -1 -2 -3 -3 -2 -3 -3 -3 -4 -4 -4 -4 -4 -4 -4 -4 -4 -4 -4 -4 -4 -4 -4
-1 -1 -2 -2 -1 -1 -0 0 -0 -1 -1 -1 -0 0 0 1 1 1 1 0 0 0 -0 -1 -0 -1 -1 -2 -3 -3 -3 -3 -3 -3 -4 -4 -4 -3 -4 -4 -4 -4 -4 -4 -4 -4 -4 -4 -4
-1 -1 -2 -2 -2 -1 -1 -0 -1 -1 -2 -1 -1 -0 -0 0 1 1 1 1 1 0 -0 -0 -0 -1 -2 -2 -2 -3 -3 -3 -3 -4 -4 -4 -4 -3 -4 -4 -4 -4 -4 -5 -5 -5 -5 -5 -5
-1 -1 -2 -3 -2 -1 -1 -1 -2 -2 -2 -2 -1 -1 -1 -1 0 1 1 1 1 1 -0 -0 0 -1 -1 -2 -2 -3 -4 -3 -3 -4 -4 -4 -4 -4 -4 -4 -4 -4 -5 -5 -5 -6 -5 -5 -5
-1 -1 -1 -2 -2 -1 -1 -1 -2 -3 -2 -2 -2 -1 -1 -1 -0 1 1 1 1 1 0 -0 -1 -1 -2 -2 -3 -4 -4 -3 -3 -4 -5 -4 -4 -4 -5 -5 -5 -5 -5 -5 -5 -5 -5 -4 -4
-1 -1 -1 -1 -2 -1 -1 -1 -2 -2 -2 -2 -2 -1 -1 -1 -1 0 1 1 1 1 -0 -1 -1 -2 -2 -3 -3 -4 -4 -3 -3 -3 -4 -4 -4 -4 -5 -5 -6 -6 -5 -4 -4 -5 -5 -4 -4
-1 -0 0 0 -1 -1 -1 -1 -1 -1 -2 -2 -2 -2 -2 -1 -1 -1 -0 0 0 0 -0 -1 -2 -2 -3 -3 -4 -4 -3 -3 -2 -3 -4 -4 -4 -5 -5 -5 -6 -5 -5 -4 -4 -5 -5 -5 -4
-0 1 1 1 -0 -1 -1 -1 -0 0 -1 -2 -3 -3 -2 -2 -2 -1 -1 -0 -0 -0 -1 -1 -2 -3 -3 -4 -4 -4 -4 -3 -3 -4 -4 -4 -5 -5 -5 -6 -6 -5 -4 -3 -4 -5 -6 -6 -6
1 1 1 1 -0 -1 -1 -1 -0 -0 -1 -2 -3 -3 -3 -2 -2 -2 -1 -1 -1 -1 -1 -2 -3 -3 -3 -4 -4 -5 -4 -4 -4 -4 -4 -4 -5 -5 -6 -6 -6 -5 -3 -3 -4 -6 -6 -6 -6
1 1 1 0 -0 -0 -1 -1 -1 -1 -1 -2 -2 -2 -3 -3 -2 -2 -2 -1 -1 -1 -2 -2 -3 -4 -4 -4 -4 -5 -5 -5 -4 -4 -4 -4 -4 -4 -5 -6 -6 -6 -4 -4 -5 -5 -6 -6 -6
1 0 -0 -0 -0 -0 -0 -1 -1 -1 -1 -1 -1 -1 -2 -3 -3 -2 -2 -2 -2 -2 -2 -3 -4 -5 -4 -4 -4 -5 -5 -5 -4 -4 -4 -3 -2 -3 -4 -5 -6 -6 -5 -5 -5 -5 -5 -5 -5
0 -0 -0 -1 -1 -1 -0 -1 -1 -1 -0 -0 -0 -1 -1 -2 -2 -3 -3 -3 -3 -3 -3 -3 -4 -5 -5 -4 -5 -5 -5 -5 -5 -4 -4 -3 -2 -2 -3 -4 -5 -5 -5 -5 -5 -5 -4 -4 -4
0 0 -0 -0 -1 -1 -1 -1 -1 -1 -1 -1 -1 -1 -1 -1 -2 -2 -3 -3 -3 -3 -3 -4 -5 -5 -5 -5 -5 -5 -6 -5 -5 -5 -4 -4 -3 -2 -2 -3 -4 -5 -5 -5 -5 -4 -4 -4 -4
0 0 0 -0 -1 -1 -1 -1 -1 -1 -1 -1 -1 -1 -1 -1 -1 -2 -2 -3 -4 -3 -3 -4 -5 -5 -5 -5 -5 -6 -6 -5 -5 -5 -5 -5 -4 -4 -3 -4 -4 -5 -5 -5 -5 -4 -4 -3 -4
-0 -0 -0 -0 -1 -0 -0 -1 -1 -1 -1 -1 -1 -1 -1 -1 -1 -2 -2 -3 -4 -4 -4 -4 -5 -5 -5 -5 -5 -6 -6 -6 -5 -5 -5 -5 -5 -4 -4 -4 -4 -5 -5 -5 -5 -4 -4 -3 -4